Dewpoint
52 51 49 47 45 43 41 41 40 39 38 38 38 38 36 36 36 35 34 32 34 34
52 50 49 48 47 46 44 42 40 39 37 36 36 35 34 33 32 32 32 31 31 31
52 52 51 49 47 45 45 43 39 35 34 33 33 32 32 31 29 28 29 27 24 26
52 52 50 48 46 43 40 36 34 33 32 30 29 28 28 28 27 23 21 22 22 22
49 48 47 45 41 37 36 34 33 31 30 29 27 25 23 23 25 24 22 22 22 21
45 43 42 40 38 35 33 31 30 29 27 27 26 24 23 21 21 23 23 23 22 23
43 42 41 38 35 33 31 29 27 26 25 24 21 20 19 19 19 20 22 24 25 25
42 41 39 37 34 31 28 23 22 20 19 19 17 21 25 26 26 25 25 26 25 26
41 40 39 36 31 27 23 19 17 17 20 20 18 32 32 30 29 28 27 26 26 26
38 36 33 27 23 20 17 16 17 18 18 18 19 30 29 30 28 26 26 26 26 25
32 28 23 20 17 17 17 18 18 18 19 19 19 28 29 28 25 25 25 24 23 23
25 21 18 17 17 18 19 18 18 19 19 18 20 27 27 27 24 23 23 23 23 24
22 18 17 18 19 19 19 19 18 18 18 21 17 24 27 26 23 22 22 23 24 28
19 19 19 20 20 19 18 17 17 16 17 17 19 21 27 27 25 24 24 24 25 25
Lifted_Index
6 8 8 8 8 8 8 9 11 13 14 14 14 14 14 14 14 15 16 17 18 18
6 7 8 8 7 7 7 9 11 13 13 14 14 14 14 14 15 16 18 19 19 20
6 6 7 6 6 6 7 9 11 13 14 14 14 14 15 16 17 18 19 20 21 21
6 5 5 5 5 6 8 10 12 13 14 14 14 16 17 18 18 19 20 21 21 21
5 5 5 5 6 8 10 13 14 14 14 14 16 18 18 19 19 20 20 21 21 21
4 4 5 7 8 10 12 13 14 14 14 16 18 19 19 20 20 20 21 21 21 21
4 5 6 8 10 11 13 13 13 14 16 17 19 20 20 20 20 20 20 20 20 20
6 6 8 9 11 12 13 13 13 15 17 18 19 20 20 20 20 20 20 20 20 20
7 8 9 10 12 12 13 13 14 16 17 18 19 20 20 20 19 19 19 19 19 19
8 9 10 11 12 12 13 14 15 17 18 19 19 19 19 19 19 19 19 19 19 20
9 10 11 12 12 13 13 15 16 18 19 19 19 19 19 19 19 19 19 20 20 20
10 11 11 12 13 14 15 16 17 18 19 19 19 19 19 19 19 19 20 20 21 21
11 11 11 12 13 15 16 17 18 18 18 18 18 19 19 19 20 20 20 20 21 21
11 11 12 13 14 16 17 18 18 18 18 18 18 19 19 20 20 20 20 20 20 20